Theta_e
329 329 330 329 329 329 329 329 329 328 326 325 325 325 328 330 329 330 328 325 325 327 327 326 325 323 324 326 327 327 327 328 330 331 332 332 332 332 331 330 328 321 314 312 309 307 307 307 307 307 307 307 308 307 307 306 306 306 306 306 306 306 306 306 306 306 307 306 306 307 307 306 306 307 307 308 309 309 310 310 310 309 308 307 307
329 330 330 329 328 329 329 329 330 328 328 328 328 327 329 329 329 330 327 327 328 327 328 327 326 325 324 326 328 328 328 328 330 330 331 332 332 332 331 330 329 324 318 314 312 309 307 307 307 307 306 306 307 307 306 306 306 306 306 306 306 306 306 305 305 306 306 306 306 306 306 307 307 307 307 307 308 309 310 310 310 310 309 309 307
329 330 330 330 329 329 329 329 329 329 329 329 329 329 329 329 329 330 327 327 328 327 327 328 328 327 325 326 327 328 328 328 329 329 329 330 331 332 331 330 328 326 322 317 314 312 309 307 306 306 306 306 306 306 306 306 306 306 305 306 306 306 306 305 305 305 305 305 305 306 306 306 307 307 307 307 307 308 309 309 310 310 310 309 309
330 330 330 331 330 329 330 330 330 330 330 330 330 330 329 329 329 330 327 326 327 326 327 327 327 328 326 326 326 327 328 327 328 328 328 328 329 331 331 329 328 328 325 322 318 315 313 310 309 307 306 306 306 305 305 305 305 306 305 305 306 306 305 305 305 305 305 305 305 305 306 306 306 307 307 307 308 308 308 309 309 310 310 310 309
329 330 330 331 330 330 330 331 330 330 330 330 330 330 329 329 329 329 328 327 326 326 327 327 327 327 327 327 326 326 326 326 327 327 327 327 327 330 330 329 328 327 326 326 324 322 319 315 312 310 309 308 307 307 307 306 306 305 305 305 305 305 305 305 306 305 305 305 305 305 305 305 306 307 307 307 308 308 308 308 309 310 310 310 310
330 331 330 331 331 330 331 331 330 330 330 330 331 330 329 329 329 329 329 328 326 326 327 327 326 326 327 327 327 326 325 326 326 327 328 328 328 329 330 330 328 328 327 327 327 327 325 322 318 314 312 311 310 310 310 310 309 308 309 308 308 307 306 306 305 305 305 305 305 305 305 305 305 306 306 307 307 308 308 308 309 309 309 310 310
329 330 329 330 330 330 331 331 330 330 329 329 330 330 330 329 329 329 329 328 327 326 326 326 325 326 326 326 327 327 326 326 326 326 329 329 330 330 330 330 329 328 328 327 327 327 327 327 325 320 316 314 313 313 313 312 312 312 312 312 312 311 310 309 307 306 305 305 305 304 304 305 305 305 306 307 307 307 308 308 309 309 310 310 310
329 329 328 329 330 329 330 330 330 330 329 329 330 330 330 330 329 329 329 329 328 327 326 325 324 324 325 326 327 327 327 327 326 327 328 329 330 331 330 330 330 329 328 328 327 327 326 326 327 326 323 320 318 316 315 314 314 314 314 314 314 313 313 313 311 309 307 306 305 304 304 304 305 305 306 306 307 308 308 309 309 309 310 309 310
328 328 328 328 329 328 328 329 329 329 330 329 329 330 330 330 330 329 329 328 328 326 324 324 323 323 324 325 327 327 327 327 327 328 328 328 329 330 330 330 330 330 329 329 328 328 327 326 326 327 326 326 325 323 321 319 317 317 316 316 316 315 314 314 313 313 311 308 306 305 305 305 305 305 306 306 307 308 308 309 309 309 310 310 310
328 328 328 328 328 327 327 328 329 329 329 329 329 329 329 329 330 330 329 328 328 325 320 320 322 324 325 326 327 327 327 327 327 328 328 328 328 328 328 329 329 330 330 329 328 328 328 328 327 326 325 326 327 327 326 325 322 320 319 318 318 317 316 315 315 314 313 311 309 307 306 306 306 306 306 306 307 308 309 309 309 310 310 310 310
327 328 328 328 328 327 327 328 328 329 329 329 329 329 328 329 329 329 330 329 327 325 320 318 322 325 326 326 326 327 327 327 327 327 328 328 328 327 328 328 328 329 329 330 329 329 329 328 328 327 327 327 327 327 327 327 326 323 321 319 319 318 317 316 315 314 314 314 313 311 310 309 308 307 307 307 308 307 308 309 309 310 310 310 310
327 327 327 327 328 328 328 328 329 329 329 329 328 328 329 328 328 329 329 328 328 327 323 320 322 325 326 325 325 326 327 327 327 327 327 328 328 327 327 327 327 327 328 330 329 329 329 329 329 329 328 328 328 328 327 327 327 325 324 322 322 320 318 317 317 316 315 316 316 315 314 312 311 310 309 309 308 308 308 309 309 310 310 310 310
326 327 327 326 327 327 328 328 328 328 328 329 328 327 328 328 328 328 328 328 328 328 327 324 323 324 325 324 325 326 326 326 327 327 327 327 327 327 327 327 327 327 328 328 328 328 329 329 329 329 329 329 329 329 328 327 327 326 326 327 326 325 322 319 318 318 318 318 318 317 316 314 312 311 311 311 310 309 308 308 309 309 310 310 310
324 324 325 326 325 326 326 326 327 327 328 328 327 327 327 327 328 328 327 327 328 328 328 327 326 326 326 326 327 326 325 326 328 328 327 327 327 327 327 327 327 327 327 327 327 327 328 328 328 328 328 329 329 329 328 327 327 327 328 328 328 328 326 323 321 319 320 320 319 319 318 316 315 314 313 313 312 311 309 309 308 308 310 310 310
319 319 321 324 324 324 323 323 324 325 326 326 326 326 326 326 326 327 328 327 328 328 328 327 327 327 328 327 327 327 324 325 327 327 327 328 327 327 326 326 326 327 327 327 327 327 327 327 327 327 327 327 329 329 329 328 327 328 329 329 329 328 328 327 325 322 321 321 321 320 321 320 319 318 318 317 315 313 312 311 309 308 309 310 310
319 319 318 320 321 321 320 320 322 323 324 325 325 325 325 325 326 326 327 328 328 328 328 328 327 326 327 327 327 327 325 324 325 325 325 325 326 326 326 326 326 326 326 326 327 327 327 327 327 327 327 327 327 328 328 328 328 329 329 329 329 329 328 328 327 325 323 322 322 321 321 322 322 322 322 321 320 317 314 313 312 308 307 308 310
319 321 320 319 318 318 317 318 321 323 324 324 324 324 325 325 325 325 326 326 327 327 327 327 327 326 326 327 326 326 325 325 325 325 324 323 323 324 324 324 324 325 326 325 326 326 326 326 326 326 326 326 327 327 327 327 327 328 329 329 329 329 329 328 327 326 326 325 324 323 322 323 325 325 325 325 325 322 318 315 313 309 307 308 309
316 318 319 319 318 318 318 319 321 323 324 324 323 323 324 324 324 324 325 325 325 326 326 326 326 326 326 326 326 326 326 325 325 324 324 324 323 322 322 321 322 324 324 324 324 325 325 325 326 326 327 327 326 327 326 327 327 327 328 328 329 329 329 328 327 326 325 326 326 326 325 326 327 327 327 327 327 326 323 320 316 311 310 312 312
317 317 319 319 320 320 320 320 322 324 323 323 323 323 323 324 323 322 323 325 326 326 327 327 326 326 326 327 326 326 325 325 325 324 324 325 324 324 323 323 323 324 324 323 322 323 324 324 325 325 325 326 326 327 326 327 326 326 327 327 328 328 328 328 328 326 325 325 326 328 328 329 329 329 329 329 328 328 327 325 322 317 314 315 316
317 317 319 320 320 320 321 320 321 322 322 322 322 322 322 322 321 317 317 323 326 326 326 326 326 326 326 326 326 326 325 324 324 324 323 324 325 325 325 325 325 325 324 323 322 322 322 322 323 322 323 323 324 326 326 326 326 326 327 326 327 327 328 328 328 327 326 325 325 327 328 329 329 330 329 329 329 328 328 327 326 324 320 318 318
315 317 319 320 320 321 321 320 321 322 322 322 321 322 321 319 318 316 316 321 325 325 326 326 326 326 326 326 326 325 324 323 323 323 322 323 324 325 325 324 323 323 323 322 321 321 321 321 321 321 322 322 322 323 325 325 325 326 326 326 326 327 327 328 328 328 327 326 325 326 327 328 328 329 329 329 329 328 328 327 327 326 325 323 321
310 315 319 320 319 320 320 320 320 320 319 320 319 319 317 314 312 312 314 320 324 325 325 325 325 325 325 325 326 325 324 323 323 323 323 322 323 324 323 320 319 321 323 322 320 321 321 321 320 321 321 321 321 322 323 323 324 324 324 325 325 326 327 328 328 328 328 327 326 326 327 327 327 327 327 327 328 328 329 328 328 327 327 326 325
306 312 318 320 319 319 318 316 314 312 311 311 311 310 309 307 306 307 311 317 321 322 322 322 323 323 324 323 324 324 324 323 323 323 323 323 323 323 321 317 316 319 320 319 318 319 319 319 319 320 320 321 321 321 321 322 323 324 325 325 326 327 327 327 327 328 328 328 327 327 327 327 328 327 327 326 326 327 328 328 328 328 328 327 327
305 308 313 317 317 313 310 308 307 306 306 306 306 306 306 305 305 306 307 310 313 313 313 314 316 318 320 322 322 323 323 323 323 323 323 321 321 322 322 319 317 316 316 316 316 316 316 316 317 318 319 319 319 320 322 322 324 326 327 327 327 327 327 327 327 327 327 327 328 328 328 328 328 327 327 327 327 327 327 327 328 328 329 329 329
306 306 307 309 309 307 306 306 306 306 306 306 306 306 306 306 306 306 306 306 306 307 308 308 309 311 314 317 318 319 320 319 319 317 314 313 313 316 318 317 315 313 313 316 318 317 317 317 317 317 318 319 319 320 320 322 324 327 326 326 326 327 327 327 328 328 327 327 328 329 329 328 327 327 327 328 328 327 326 327 328 328 328 329 329
306 306 306 306 306 306 306 306 306 306 306 306 306 306 306 306 306 306 306 306 305 305 306 306 306 307 308 309 310 310 310 310 309 308 306 306 307 308 309 309 309 309 312 315 317 318 319 320 321 320 319 321 322 322 322 323 325 325 325 324 324 326 326 326 327 327 327 328 328 328 328 326 325 325 325 326 327 327 326 326 327 327 327 328 328
307 306 306 306 306 306 306 306 306 306 306 306 306 306 306 306 306 305 305 306 305 305 305 305 305 305 306 306 305 305 305 305 305 305 305 305 305 305 304 306 308 310 313 314 315 316 318 320 321 322 322 323 324 324 325 325 323 322 322 322 322 322 322 323 323 324 324 324 323 323 323 323 323 324 324 324 325 326 326 326 326 327 327 327 327
307 307 307 306 307 306 306 306 306 306 306 306 306 306 306 306 305 305 305 305 305 305 305 305 305 304 304 305 304 304 304 304 303 303 303 303 304 304 303 304 305 307 309 311 314 315 316 317 318 319 320 322 322 324 325 324 321 320 319 319 319 320 320 320 320 320 320 320 319 317 316 316 317 319 320 322 324 325 325 326 325 326 326 326 326
308 308 308 307 307 307 307 307 307 307 307 306 306 306 306 306 305 305 305 305 305 305 304 304 304 304 304 304 303 303 303 303 303 303 303 303 303 303 303 303 303 303 304 306 309 311 312 314 316 317 318 319 319 321 323 323 321 319 318 318 317 318 318 318 318 318 318 318 317 317 315 313 311 311 312 314 318 321 323 325 325 325 325 325 325
309 309 309 308 308 308 308 308 308 308 307 307 307 307 307 306 306 306 305 305 305 305 304 304 304 304 303 304 303 304 304 303 303 303 303 303 303 303 303 303 303 303 303 303 305 307 307 307 309 313 315 316 316 318 319 320 319 318 318 318 317 317 317 317 317 317 317 316 316 315 313 311 310 308 308 308 309 312 315 318 321 323 324 325 325
312 311 310 310 310 310 310 310 310 309 309 309 308 308 308 307 307 307 306 306 305 305 305 305 305 305 304 304 305 305 305 305 305 305 304 304 304 304 304 304 304 303 303 303 304 305 305 304 304 306 307 309 310 311 311 312 313 314 314 315 315 315 314 314 314 313 312 311 310 309 309 309 310 309 309 309 308 308 309 309 311 315 318 321 322
314 312 312 312 312 312 312 311 311 311 311 311 311 310 310 309 309 308 307 307 307 306 306 305 305 305 305 305 305 305 306 306 306 306 306 305 305 305 305 305 305 305 305 305 305 305 305 304 304 303 303 303 303 304 304 305 305 306 306 307 308 308 308 307 307 307 307 306 306 307 309 310 310 311 311 311 311 310 309 309 309 310 311 312 314
316 315 315 315 315 315 315 314 313 313 313 313 313 312 312 312 311 310 309 308 308 307 306 306 305 305 305 305 305 305 305 305 305 305 305 306 306 306 305 305 305 305 305 305 305 306 306 305 304 304 303 302 302 302 302 302 302 302 302 303 302 302 303 304 305 306 307 307 308 309 310 310 311 312 312 312 312 312 311 311 312 313 313 312 312
317 318 318 317 316 316 317 317 317 317 316 315 315 315 315 314 314 313 312 311 311 310 308 307 307 307 306 306 305 305 305 305 305 305 305 305 306 305 305 305 305 304 304 304 304 305 307 307 306 306 305 305 304 302 302 302 302 302 302 302 302 302 303 304 306 307 308 308 309 309 310 310 311 311 312 312 312 313 313 313 314 315 316 316 315
318 318 319 318 317 316 316 317 318 318 318 318 318 318 317 317 316 316 315 315 314 313 312 311 309 308 308 307 307 306 306 306 306 305 305 305 305 305 305 304 304 303 303 303 303 304 305 307 307 307 307 307 305 303 302 302 302 302 302 302 302 302 302 304 305 307 308 308 309 309 309 310 310 310 311 312 312 312 313 313 314 314 315 316 316
319 318 318 317 317 317 316 317 318 318 318 318 318 318 318 318 318 318 317 317 316 316 315 315 313 311 310 309 308 308 307 307 307 307 306 305 305 304 304 304 304 303 303 303 302 302 303 305 306 306 305 305 304 302 302 303 302 302 302 302 302 302 302 302 303 304 305 306 307 307 308 308 308 309 309 310 311 312 312 313 314 314 315 316 317
320 319 318 317 317 317 317 317 318 318 318 318 318 318 318 319 319 319 319 318 318 317 317 317 316 314 313 311 310 309 309 309 309 309 309 308 306 305 304 304 303 303 303 303 302 302 301 302 304 304 304 304 304 303 302 303 303 303 302 301 302 302 303 303 302 303 304 305 306 307 307 308 308 309 309 310 311 311 312 312 313 314 314 315 316
320 320 319 319 318 318 319 319 320 319 319 318 318 318 318 319 319 319 319 318 318 318 318 318 317 316 316 314 313 311 311 311 311 310 310 310 309 307 305 304 303 303 303 302 302 302 302 302 303 304 305 305 305 305 303 302 302 303 304 303 302 302 302 303 303 303 303 304 304 306 307 307 308 308 308 308 309 310 311 312 312 313 313 313 314
321 321 320 319 318 318 318 320 320 320 320 320 319 319 319 319 319 319 319 318 318 318 318 318 317 317 317 316 316 314 313 312 311 311 311 310 310 309 307 305 304 303 302 302 301 301 302 302 302 304 306 306 305 305 304 303 301 301 302 303 304 303 302 301 301 301 301 301 302 303 305 305 306 306 305 305 306 307 307 309 310 310 309 310 311
321 320 319 318 317 317 317 318 318 318 319 319 319 319 319 319 319 319 319 319 318 318 318 317 317 317 317 317 317 316 315 313 312 312 312 311 310 309 308 306 305 303 302 301 301 301 301 302 302 303 304 305 304 303 303 303 301 301 300 300 302 303 302 302 300 299 299 299 300 300 301 302 303 303 303 303 304 304 305 305 306 306 307 308 309
318 318 317 317 317 317 317 317 317 317 317 317 317 318 318 319 319 319 319 318 318 317 317 317 317 317 317 317 317 316 315 314 312 312 313 312 311 309 308 307 305 303 301 300 300 301 301 301 302 302 303 303 301 300 301 300 299 300 299 298 299 300 300 301 300 299 299 299 299 299 300 301 301 301 301 302 303 303 303 303 303 304 307 308 309
314 314 313 314 315 315 316 317 317 317 317 316 316 316 317 318 318 319 319 318 318 317 317 317 317 316 316 317 317 316 315 314 312 312 312 312 311 310 309 308 306 303 301 300 300 300 300 301 302 302 301 301 299 298 298 298 297 297 298 297 298 298 298 299 300 299 299 298 299 299 300 300 300 300 301 301 301 301 301 300 300 302 306 309 310
314 314 314 315 316 317 318 318 317 318 318 317 318 318 318 318 319 319 319 318 318 318 318 317 317 317 317 317 316 316 315 314 313 311 311 311 310 309 309 308 307 305 302 301 301 300 300 300 301 300 299 298 297 296 296 296 296 296 297 297 297 297 297 297 298 299 299 298 298 299 299 299 299 299 299 299 299 299 299 299 299 300 303 306 309
317 317 317 317 317 317 318 318 317 317 317 317 318 318 319 320 320 320 320 319 319 318 318 317 317 317 317 316 316 315 314 314 312 311 310 310 309 308 308 308 308 307 304 302 301 301 300 300 300 299 298 296 296 296 296 296 296 296 296 296 296 296 296 297 297 298 298 298 298 298 299 299 299 298 299 299 299 299 299 299 299 299 300 301 303
317 316 316 316 316 316 317 317 316 315 314 314 315 316 318 319 320 320 320 319 319 318 318 317 317 317 316 315 315 314 313 312 311 310 310 309 309 308 308 308 308 307 305 303 301 300 299 299 299 299 298 296 295 295 295 295 295 296 296 296 296 296 296 296 296 297 298 297 297 297 298 299 299 298 299 299 299 299 299 299 299 299 299 299 299
313 313 314 314 315 315 315 315 315 314 312 310 311 313 315 317 318 319 319 319 318 318 318 318 317 317 315 314 314 313 312 311 310 309 308 307 307 308 308 308 307 305 303 302 301 300 299 299 298 298 297 295 295 295 295 295 295 295 295 295 295 295 296 296 296 297 297 297 297 297 298 298 298 298 298 299 299 299 299 299 299 299 299 300 300
310 311 312 313 314 313 313 313 314 314 312 310 309 310 311 312 313 314 315 317 318 318 318 318 317 315 314 313 312 312 311 310 309 307 306 306 307 308 307 306 305 303 302 301 300 299 299 298 297 297 296 295 295 295 295 295 295 295 295 295 295 295 295 295 296 296 297 297 296 296 297 297 298 298 298 298 299 299 299 299 299 299 299 300 300
305 306 307 309 310 311 312 313 313 313 312 309 308 307 307 308 308 309 311 313 315 317 317 316 316 314 313 312 312 311 310 308 307 305 305 306 307 307 305 304 303 302 301 300 299 299 299 298 297 297 296 295 295 295 295 295 295 295 294 294 294 294 294 294 295 296 296 296 296 296 296 296 297 297 297 297 297 298 299 299 299 299 300 300 300
300 301 302 304 307 309 310 311 311 312 311 309 307 305 305 306 307 308 309 311 314 315 315 315 315 313 312 311 311 309 307 306 305 305 305 305 305 304 304 303 302 301 300 300 299 299 299 298 297 296 296 295 295 295 295 295 294 294 294 294 294 294 294 294 295 295 296 296 296 296 295 296 296 296 297 297 297 297 298 298 299 299 300 300 301
300 299 300 301 304 307 309 310 311 311 311 310 308 306 306 307 308 309 310 312 314 314 314 314 313 312 311 310 309 307 306 306 305 305 305 304 303 303 302 301 301 301 300 300 299 298 298 297 296 296 295 295 295 294 294 294 294 294 294 294 294 294 294 294 294 295 295 295 295 295 295 295 295 295 296 296 296 297 297 297 298 299 300 301 302
302 301 300 300 302 304 307 309 310 311 311 310 309 309 308 309 309 310 311 312 313 313 312 312 311 310 310 309 307 306 306 306 306 305 304 303 302 302 301 301 300 300 299 298 297 297 296 296 295 295 294 294 294 294 294 294 294 294 294 294 294 294 294 294 294 294 294 294 295 294 294 294 294 295 295 296 296 297 297 297 297 299 300 300 301
Wind_Speed
9 9 9 9 9 10 10 9 9 8 8 8 8 7 5 5 6 6 5 6 8 8 8 8 9 10 10 10 8 6 8 8 7 5 5 4 5 5 6 7 7 5 4 3 1 1 2 6 8 9 9 9 8 7 7 6 6 6 6 5 5 5 5 5 4 3 2 1 1 1 3 4 5 6 7 8 8 9 9 9 10 10 11 12 13
11 10 10 9 9 10 10 10 9 9 8 7 8 7 5 5 6 7 8 9 9 8 8 7 7 6 8 9 6 6 8 7 6 5 6 7 6 5 5 5 5 4 3 3 2 1 2 3 6 8 8 9 9 8 8 8 7 7 7 6 6 6 6 5 5 4 3 2 1 0 1 2 3 4 5 6 7 7 7 8 8 8 9 10 11
12 11 10 9 9 10 10 10 9 8 8 8 8 8 7 7 7 8 10 10 9 8 7 7 7 7 9 10 7 7 8 7 6 5 4 5 6 5 3 2 3 4 4 3 2 1 1 2 4 5 6 7 8 8 9 9 9 9 8 7 6 5 6 5 5 4 3 3 2 2 1 1 2 3 4 5 5 6 6 6 6 7 7 8 9
11 11 11 10 11 10 10 9 9 8 8 8 9 9 9 10 10 10 11 11 10 8 7 6 7 8 11 11 11 11 10 9 8 6 4 4 5 4 2 1 2 3 4 3 2 2 1 1 3 4 4 4 6 6 7 8 9 9 8 8 7 6 5 5 5 5 4 3 3 3 3 2 2 2 3 3 4 4 5 5 5 5 6 6 7
11 11 12 12 12 11 9 9 9 9 9 9 9 10 11 12 12 11 11 11 11 10 7 7 8 9 11 12 13 14 13 12 11 9 6 5 4 5 4 2 0 1 2 3 3 3 2 1 1 3 3 3 3 3 4 4 5 6 6 6 7 7 6 5 6 6 5 4 3 3 4 3 3 3 3 3 3 3 3 4 4 4 5 5 6
13 13 13 13 12 11 8 9 10 9 10 11 11 11 12 13 13 11 11 11 10 10 9 10 12 12 12 13 13 14 14 14 14 12 10 9 7 6 5 3 1 0 1 2 3 4 4 3 2 2 3 3 3 3 3 3 3 4 4 5 5 6 6 5 5 6 6 5 4 4 4 4 4 4 4 3 3 3 2 3 3 3 4 4 5
13 14 13 13 12 11 9 9 9 9 10 11 11 12 13 13 13 11 10 10 10 11 12 14 14 14 15 15 14 13 12 13 14 14 13 11 9 8 6 5 3 1 1 3 4 5 5 4 3 2 2 3 3 3 3 3 3 3 3 4 4 5 5 5 4 6 7 6 6 5 5 5 5 5 5 4 4 3 3 2 2 2 3 3 4
13 14 13 12 12 11 11 10 10 9 10 10 11 14 14 14 13 11 10 10 11 13 14 16 17 17 18 16 15 12 10 10 11 13 14 12 11 11 9 8 7 5 4 3 4 5 6 5 3 2 1 2 3 3 4 4 4 4 4 4 5 5 5 5 4 4 5 6 6 6 6 7 6 6 6 5 4 4 3 2 2 1 2 2 3
13 13 12 11 12 11 11 11 11 10 10 10 10 13 15 15 15 13 11 10 11 12 13 16 17 17 17 15 14 12 10 10 9 10 11 12 13 13 12 12 11 10 8 5 4 5 6 5 4 3 3 2 2 3 4 4 5 5 5 5 5 5 4 5 4 4 4 5 6 7 7 8 8 7 7 6 5 4 3 3 2 1 1 1 2
12 12 11 10 11 11 11 11 11 10 10 10 10 12 14 14 15 14 12 11 11 10 10 14 17 16 14 13 12 12 12 12 11 10 9 10 11 11 12 13 12 12 10 8 5 4 5 4 4 5 4 3 3 4 4 4 5 6 6 6 6 5 5 5 5 5 5 5 6 7 8 8 8 8 8 7 6 5 4 3 2 2 1 1 1
11 10 9 9 9 10 11 11 10 10 9 10 10 11 12 13 14 14 13 11 10 8 7 11 16 16 13 12 12 12 13 13 14 13 12 12 10 8 9 11 12 12 12 12 8 6 6 5 5 4 4 3 4 5 6 6 6 6 6 7 7 6 6 5 5 5 6 6 6 6 7 8 9 9 8 8 7 6 4 4 3 3 2 1 0
7 7 7 6 7 8 9 9 9 9 8 8 9 9 11 13 13 14 13 11 10 8 7 9 13 15 14 13 12 13 13 14 15 15 15 15 13 10 7 7 10 12 13 13 11 9 9 8 7 6 5 5 4 5 5 6 6 6 5 5 6 6 6 7 6 6 6 6 6 6 6 8 9 8 8 7 7 6 5 4 4 4 3 3 2
6 6 6 5 5 6 6 7 8 8 8 9 9 8 10 11 12 12 13 12 11 10 9 9 11 14 14 13 13 13 13 14 15 16 16 17 17 15 10 6 6 8 10 12 12 11 12 11 10 10 9 8 7 6 6 6 6 5 4 5 6 6 6 7 7 7 6 6 6 6 5 6 7 7 6 6 6 6 5 5 5 5 5 4 3
5 6 7 6 5 5 5 5 5 5 7 8 8 8 8 9 11 12 12 13 13 11 10 10 10 11 11 11 11 11 12 13 14 15 15 16 17 17 15 10 7 6 6 8 10 11 11 12 12 11 10 10 10 9 7 7 6 6 4 4 6 7 7 8 9 8 8 7 6 5 3 3 4 4 4 4 4 5 5 5 6 6 6 6 5
6 7 7 7 5 4 3 2 3 3 3 5 5 6 7 7 9 11 12 14 13 12 11 11 10 10 10 11 10 9 10 12 14 14 14 15 15 16 16 13 10 8 8 8 8 9 10 10 11 11 10 9 10 11 10 8 7 7 7 7 7 8 8 9 10 9 8 8 7 5 3 3 2 2 3 3 3 4 5 5 6 6 7 6 6
6 7 7 6 5 4 3 2 2 2 3 4 4 4 5 6 8 9 11 12 13 13 12 12 12 11 9 9 9 8 7 9 11 11 11 13 15 16 15 14 12 11 10 11 10 11 11 11 12 13 12 12 12 11 11 9 9 9 9 10 9 9 8 9 11 11 9 9 8 6 4 4 3 2 2 3 4 4 4 5 5 6 6 7 7
7 7 6 4 4 4 4 3 3 3 4 4 4 3 3 4 6 7 8 9 10 11 11 12 12 12 10 8 7 7 8 9 8 8 8 9 11 14 14 13 13 12 11 13 12 10 11 12 13 13 14 15 15 15 13 12 11 11 11 11 10 9 8 9 10 11 11 11 10 8 6 5 5 4 3 3 4 5 4 4 5 5 6 6 7
7 8 7 5 3 4 5 5 4 4 5 4 4 3 2 1 1 2 4 6 7 8 9 11 11 12 13 10 7 6 8 9 7 5 6 6 6 8 10 10 12 13 13 15 14 11 12 14 15 16 16 15 14 14 14 13 12 12 12 12 11 11 9 9 10 11 12 13 13 12 10 8 7 7 7 6 6 5 5 4 5 6 6 6 6
7 7 7 5 5 6 5 5 6 5 5 4 4 3 3 4 4 4 1 3 5 5 6 8 8 9 11 11 8 5 6 6 4 3 2 3 4 4 5 6 8 10 11 12 11 11 12 12 13 14 14 13 13 14 14 13 13 12 13 12 12 12 11 11 11 11 12 14 15 15 14 12 11 10 10 10 9 8 7 6 5 6 7 8 7
9 8 6 5 6 6 5 4 4 5 4 4 4 3 3 3 2 3 3 2 5 4 3 4 6 6 8 11 10 6 5 5 3 2 2 2 3 3 4 5 6 6 6 6 6 8 10 10 9 7 6 7 9 12 13 14 13 12 13 12 12 12 12 12 13 12 12 13 15 16 16 14 14 14 14 12 12 11 9 8 7 7 8 9 10
10 10 7 6 6 6 5 4 4 3 2 2 2 1 1 1 2 3 3 1 3 4 4 5 5 5 6 9 10 8 7 5 4 4 5 4 4 5 4 3 3 4 4 2 1 4 7 9 10 9 7 6 6 7 8 10 11 11 11 11 11 12 13 13 14 14 13 12 13 15 16 14 14 16 16 15 15 14 12 11 10 9 9 9 10
9 11 11 8 7 7 5 4 3 3 3 3 3 3 4 4 4 3 0 2 3 4 6 6 6 5 6 7 9 9 8 6 6 5 5 5 6 6 5 3 2 1 2 1 1 2 4 6 8 9 10 9 7 6 6 8 9 10 10 10 11 12 13 14 15 15 15 14 13 14 15 15 15 15 15 16 16 15 15 14 12 11 11 11 11
9 10 13 12 9 7 5 3 3 3 3 3 2 1 2 2 2 1 2 4 4 4 4 5 5 5 6 6 7 8 7 6 6 5 5 5 6 6 5 3 3 4 3 2 2 2 3 5 7 7 7 8 10 10 9 8 9 9 10 10 11 11 13 14 14 15 16 16 15 15 16 16 17 17 17 18 18 16 16 16 15 14 14 14 13
10 10 12 12 9 6 6 6 8 9 9 9 9 9 9 8 7 5 4 4 4 2 1 2 3 4 4 5 6 6 6 5 4 5 5 4 5 5 5 4 3 3 5 6 4 2 2 5 6 5 5 5 8 10 10 8 8 8 7 8 9 9 10 11 12 13 15 16 16 16 17 18 19 19 18 18 19 19 19 18 17 17 17 17 16
10 10 10 10 9 9 10 10 10 10 10 10 11 10 10 10 9 8 7 6 6 4 2 2 1 2 3 4 4 5 5 5 5 6 6 7 7 7 7 8 7 4 2 7 7 4 3 3 3 5 5 4 4 6 8 8 8 5 3 4 6 6 6 8 9 9 11 12 13 14 14 15 16 17 17 17 18 19 20 20 20 20 20 19 19
11 11 10 10 10 10 9 9 9 9 10 9 9 9 9 8 8 8 7 7 7 6 5 5 3 2 2 2 2 3 2 3 3 4 4 5 5 5 5 6 7 5 4 6 7 4 5 5 3 5 7 6 6 7 6 4 2 1 1 1 2 3 3 4 5 6 8 10 11 12 12 13 14 15 15 16 17 18 18 19 20 22 23 22 21
13 12 11 10 10 9 8 7 7 8 9 8 8 8 7 7 7 7 7 7 6 5 5 5 4 4 3 3 4 3 2 1 1 1 1 2 2 2 2 2 2 3 5 5 5 5 7 8 7 7 7 6 5 5 5 3 3 4 2 1 1 2 3 4 5 7 8 9 10 11 12 14 15 15 15 15 16 17 18 18 18 20 23 24 23
14 13 13 12 10 10 8 7 6 7 8 8 7 7 7 7 7 7 7 7 6 5 5 5 5 4 4 4 4 4 3 2 2 1 0 1 1 2 2 2 1 4 5 5 5 5 6 6 6 7 7 7 5 5 7 7 5 3 2 2 3 4 5 6 7 8 9 10 11 12 13 14 15 16 16 15 15 16 17 19 19 20 22 23 23
14 13 13 12 11 11 9 8 7 7 7 7 7 6 7 7 7 7 7 7 7 7 6 6 6 6 5 5 4 4 4 3 3 2 2 2 2 2 2 2 1 2 4 5 5 4 3 2 2 3 4 5 5 5 7 7 7 6 6 5 6 8 9 10 11 12 13 14 16 17 17 18 18 19 19 18 17 17 18 19 21 22 23 24 23
13 13 12 11 11 10 9 8 8 7 6 6 6 6 6 6 6 7 7 7 7 6 6 6 7 6 6 5 5 5 5 4 3 3 2 1 1 1 1 2 2 1 1 2 2 3 2 2 3 4 3 3 4 5 7 8 9 10 11 11 11 12 13 14 15 16 17 18 20 20 20 20 20 20 20 21 21 21 20 20 21 22 23 24 24
10 10 10 10 9 9 8 7 6 6 5 4 4 5 5 5 5 5 6 6 6 5 4 5 6 5 5 5 5 5 5 4 4 3 3 2 2 2 2 2 3 3 3 3 1 1 3 4 3 4 5 6 8 9 10 11 13 14 15 16 16 16 16 17 18 20 20 20 20 19 17 15 15 15 16 17 19 20 21 21 21 22 23 23 23
7 7 7 6 6 6 7 6 5 4 3 3 2 2 3 2 2 2 3 3 3 3 2 2 3 3 2 2 3 4 4 4 5 4 4 3 4 4 4 4 4 5 5 5 4 4 5 7 7 6 6 6 7 9 10 11 12 14 16 17 17 17 17 16 15 15 14 14 14 14 13 12 12 13 13 15 16 18 19 19 20 20 21 23 23
6 5 5 4 4 4 5 6 6 5 4 3 2 1 1 1 1 1 1 1 1 1 2 2 1 1 1 0 1 2 3 4 4 4 4 4 4 4 5 6 6 7 7 7 7 6 6 7 8 8 8 8 7 7 9 9 9 11 13 14 14 14 14 12 10 8 7 8 9 11 12 13 13 14 14 15 16 16 17 18 18 17 17 18 19
8 6 5 4 4 4 4 4 4 4 5 4 4 3 3 4 4 4 4 3 3 3 2 3 3 2 2 2 2 1 2 2 3 4 5 5 5 5 5 6 7 8 9 9 10 8 7 6 7 8 8 8 8 8 9 10 10 9 10 11 12 11 11 11 9 8 8 8 9 11 12 13 14 15 16 16 17 17 17 18 18 18 17 16 16
11 10 9 8 7 7 6 6 6 5 5 4 4 4 4 4 5 5 6 6 6 5 5 4 4 4 4 4 3 2 2 3 3 4 4 4 4 5 5 6 7 8 9 10 11 11 10 9 9 10 10 10 10 10 10 10 11 11 10 10 11 11 11 12 11 10 11 12 13 14 15 16 17 18 18 18 19 19 19 19 19 19 19 18 18
14 13 13 12 11 10 9 9 9 8 8 8 7 7 6 5 5 5 5 6 6 6 5 6 6 6 5 5 5 4 3 4 4 5 4 4 4 5 5 6 7 8 8 9 10 12 12 12 11 11 12 12 12 12 13 12 11 11 11 11 11 12 12 13 13 13 13 14 15 17 18 19 20 20 21 21 20 20 21 21 21 21 21 20 20
15 15 15 14 13 12 12 12 11 11 10 11 11 11 10 9 8 8 7 7 7 6 6 6 7 7 7 6 6 5 4 4 5 5 6 6 6 6 7 7 7 8 8 9 10 11 12 14 13 13 13 14 14 14 15 16 15 14 13 12 13 14 14 13 13 14 15 15 15 16 17 18 19 20 20 21 21 21 22 22 22 22 22 22 23
17 17 16 15 14 14 13 14 14 13 13 13 14 14 13 13 12 12 12 11 11 10 9 9 9 9 8 8 7 7 6 5 5 6 7 8 8 9 9 9 9 9 9 9 10 11 11 13 14 15 15 16 17 16 16 18 19 20 19 17 15 15 16 16 15 15 16 17 17 17 17 18 19 20 20 21 21 22 22 22 21 21 22 23 23
19 19 19 18 16 15 15 15 15 15 15 15 15 16 17 16 16 16 16 15 14 14 13 12 11 11 11 10 10 9 8 7 7 7 8 9 10 11 11 11 11 11 11 11 11 11 12 13 14 16 17 18 19 20 19 20 20 21 22 23 22 19 19 19 18 19 19 19 19 20 21 22 23 24 24 24 25 26 26 25 25 25 25 25 24
21 21 21 19 16 16 16 18 19 19 19 18 18 18 19 19 19 19 19 19 18 17 16 16 15 14 14 13 12 10 9 8 8 9 11 12 12 12 12 12 12 12 12 13 13 13 14 15 16 18 19 20 21 21 21 22 22 21 21 23 25 25 24 22 21 22 23 23 22 22 23 24 25 26 26 26 26 26 26 26 26 27 27 26 26
19 17 16 14 13 14 16 18 19 20 21 21 21 21 22 21 21 21 20 20 20 19 18 18 18 18 17 17 16 14 11 10 10 10 12 13 13 13 13 13 13 13 13 14 14 14 15 17 18 20 21 21 22 22 23 22 23 23 23 24 25 26 27 26 23 23 25 25 26 25 24 24 25 25 24 23 22 22 23 23 24 25 25 25 26
11 11 11 11 12 12 13 14 15 17 18 20 21 21 22 23 24 23 22 22 22 22 21 20 21 21 21 20 20 17 14 13 13 12 12 14 14 14 14 14 14 14 15 15 15 16 17 19 20 21 22 22 22 22 24 23 23 23 23 25 26 27 28 29 26 23 23 25 27 28 26 24 26 27 26 26 25 25 26 25 24 25 25 26 27
7 8 9 9 9 9 9 10 11 13 15 16 17 18 18 20 22 24 24 24 24 24 24 24 23 23 24 24 23 21 18 15 15 14 13 13 14 14 15 15 16 16 16 16 17 18 19 20 21 21 22 23 23 22 23 24 24 24 24 24 26 27 28 30 29 25 23 24 28 30 29 25 27 29 29 29 29 30 30 29 26 25 26 28 29
8 8 8 8 8 8 9 9 9 9 11 12 13 14 14 15 17 19 21 22 23 24 26 27 26 26 26 26 26 24 21 17 16 15 14 13 14 16 16 17 18 18 18 18 19 20 21 22 23 24 25 26 26 25 25 25 25 25 25 25 26 27 28 29 31 30 26 26 29 32 31 27 26 29 29 28 29 30 30 30 28 26 26 28 30
9 10 10 9 9 9 9 10 9 9 10 11 12 13 13 14 15 17 18 19 20 21 23 26 27 27 27 28 27 24 20 18 17 16 14 13 14 17 19 20 21 20 21 21 21 22 23 24 25 25 26 28 29 28 27 28 28 28 28 28 28 29 30 30 31 32 29 28 30 33 32 28 26 29 30 27 26 27 27 27 27 25 25 25 26
10 11 11 11 11 11 11 11 11 11 12 12 13 13 14 14 14 15 16 17 18 19 21 23 25 26 27 28 26 22 19 18 17 16 13 12 15 18 20 21 21 21 21 22 22 23 25 26 27 27 27 29 30 30 29 30 31 31 31 32 32 32 33 33 33 33 30 29 31 35 36 32 28 30 31 27 26 27 26 25 24 22 21 23 24
13 13 13 13 12 12 12 11 11 12 14 14 14 14 15 15 15 16 15 16 17 18 19 21 23 25 27 26 23 20 19 18 16 14 13 15 18 21 21 21 21 21 21 22 23 25 26 28 29 30 30 31 32 32 32 32 33 34 34 35 35 35 36 36 36 35 32 31 31 34 37 36 31 32 32 29 28 28 26 23 21 19 19 21 23
13 14 14 14 14 13 12 12 12 13 15 16 16 15 15 16 17 16 15 15 14 14 15 17 21 25 26 25 22 20 18 16 15 14 16 19 21 22 22 21 21 22 22 23 24 26 28 29 31 32 33 34 34 35 35 35 36 36 36 36 36 36 38 39 39 37 34 32 31 32 37 38 34 33 34 31 28 28 25 21 18 17 18 19 20
9 10 12 13 13 13 12 13 14 15 17 17 17 16 15 15 15 15 14 12 11 11 12 16 20 23 23 22 20 18 16 15 16 17 20 21 21 21 21 21 22 22 22 24 26 28 29 30 31 33 34 36 37 38 38 37 35 35 35 36 36 35 37 39 39 38 36 35 33 33 36 38 34 32 33 31 28 27 25 22 20 18 16 16 16
8 8 10 12 13 14 13 14 15 16 16 17 17 16 15 15 14 13 11 10 10 12 14 17 20 21 20 18 17 17 17 18 19 20 21 21 20 20 20 21 22 23 24 26 28 29 30 31 32 34 36 36 37 36 35 33 31 29 30 32 31 31 33 35 36 38 38 36 33 30 32 33 31 29 29 29 29 27 24 22 20 17 15 14 14
10 10 10 11 13 15 15 15 16 16 17 17 17 17 16 16 15 12 10 9 10 14 17 18 20 20 19 18 18 19 19 20 21 21 20 20 20 20 21 21 23 24 26 28 29 30 32 33 34 35 35 34 32 31 30 28 26 24 23 24 25 26 28 30 31 33 34 33 29 25 27 29 28 26 25 25 28 28 24 22 20 16 14 15 14
Wind_Direction
220 211 213 213 210 204 201 201 206 213 210 211 209 202 203 198 187 187 181 167 165 168 171 180 178 163 161 164 171 188 190 197 212 223 224 233 256 277 296 307 314 328 341 331 294 213 200 212 218 214 213 215 214 214 217 227 232 234 237 232 232 229 222 218 212 203 189 152 96 62 48 52 54 58 61 64 68 69 67 61 56 52 48 48 51
215 214 216 216 213 205 200 199 203 210 207 206 206 201 200 198 190 178 174 171 168 169 162 162 168 167 173 169 174 206 197 197 215 228 233 233 243 265 285 298 306 316 329 327 300 219 170 191 211 216 221 223 224 226 228 237 246 247 251 246 238 239 237 231 229 226 223 233 246 339 28 35 42 47 51 55 59 65 68 65 60 56 53 49 49
212 216 217 215 213 206 199 198 203 209 207 203 202 203 201 197 192 179 174 176 177 178 171 165 169 174 185 185 194 213 209 216 232 233 235 240 246 253 266 298 302 297 302 315 324 277 203 159 188 207 223 229 232 236 236 242 250 253 259 263 256 249 249 245 244 243 239 245 262 281 309 347 13 26 35 41 45 52 60 64 63 59 57 55 51
216 219 219 217 215 209 202 199 206 208 207 210 207 207 205 199 194 187 182 180 183 186 183 186 193 190 193 202 211 215 213 220 236 238 228 247 253 236 231 286 297 291 294 301 328 337 305 167 178 197 210 223 230 237 241 246 256 261 266 272 273 269 266 262 256 250 250 254 265 282 292 305 326 350 12 22 27 33 41 50 58 58 57 58 55
223 223 222 220 215 213 210 204 208 211 211 215 213 210 210 205 200 196 190 187 190 192 200 224 227 212 208 219 223 221 220 220 226 231 232 251 255 227 219 212 143 316 309 313 331 347 336 309 227 209 202 201 207 221 237 247 261 270 275 279 282 281 277 273 262 253 252 258 266 280 289 294 302 312 328 344 358 10 22 32 42 48 50 54 55
228 225 222 221 216 213 214 206 208 214 215 216 216 214 214 212 208 204 197 195 200 202 213 233 236 226 221 227 228 227 229 227 224 226 231 239 243 230 215 203 177 16 328 334 344 352 348 332 289 241 217 206 202 207 224 237 251 266 278 281 287 288 284 279 269 260 255 256 262 272 281 287 292 295 301 310 321 336 352 11 23 34 40 46 51
233 229 225 224 222 217 217 217 217 220 219 215 213 213 215 216 215 214 208 204 210 214 218 227 232 228 225 227 226 229 237 238 235 233 229 230 237 234 220 215 216 223 287 322 336 343 346 341 324 268 230 221 218 222 232 242 248 254 270 275 282 288 287 285 275 268 262 257 258 264 271 275 278 281 283 287 293 302 314 333 359 21 33 39 46
235 235 232 230 231 229 228 229 225 219 219 215 209 210 216 221 224 225 223 222 226 232 233 233 232 228 227 226 222 224 235 240 239 234 229 228 233 232 229 226 229 238 253 291 323 332 334 330 328 315 265 239 233 242 246 250 254 256 264 268 275 282 287 291 285 275 266 259 257 259 264 266 267 271 271 273 276 278 286 298 317 0 31 40 42
233 234 234 232 235 236 232 230 225 218 217 216 210 213 219 224 229 231 233 237 239 243 245 237 227 223 225 221 215 218 224 225 219 220 224 228 230 231 232 228 230 238 239 252 299 323 325 317 309 311 305 289 269 271 264 259 262 263 263 262 269 275 278 286 287 278 264 255 253 256 259 259 261 263 264 265 263 262 262 269 279 297 1 39 44
224 223 226 226 229 229 225 228 229 223 217 217 215 218 222 225 231 233 238 245 240 240 243 229 216 214 218 215 215 217 220 220 211 204 207 217 229 233 230 228 230 232 227 228 249 283 299 299 299 306 310 314 316 316 304 282 271 267 265 263 265 269 269 272 275 272 263 254 251 254 256 256 257 258 260 260 256 254 249 248 253 251 275 8 43
212 212 213 216 219 221 224 229 232 228 222 219 214 215 223 228 232 234 237 241 235 232 233 222 214 213 216 221 225 226 228 229 221 215 210 211 220 225 225 225 225 225 221 217 223 241 251 255 276 297 306 308 319 325 316 300 287 277 267 263 259 259 262 261 260 259 257 257 254 251 254 258 259 257 257 257 256 255 247 242 243 239 234 222 168
189 190 191 193 199 213 222 226 228 226 226 230 223 218 222 227 233 235 234 235 232 228 227 225 220 217 223 233 238 238 238 237 231 227 225 223 221 218 217 216 217 223 222 216 220 233 235 235 247 256 265 269 278 298 300 287 281 279 277 280 278 269 264 260 258 257 255 259 263 257 254 258 260 261 261 263 264 262 254 244 236 232 226 215 215
166 164 161 157 170 186 198 208 215 219 226 235 235 228 225 227 233 236 232 231 232 230 228 229 226 223 230 240 243 243 241 238 234 231 233 233 231 230 227 213 210 223 224 218 222 231 232 233 239 245 253 257 261 271 277 268 258 259 282 309 309 298 282 268 259 258 258 257 261 262 258 256 260 266 272 274 274 270 261 252 241 230 223 215 213
196 188 178 167 168 170 174 186 194 208 222 230 235 235 233 234 238 241 236 233 236 238 233 231 231 233 242 248 249 249 244 237 231 228 231 232 231 234 233 225 217 225 233 230 232 236 235 236 240 247 255 257 255 256 261 262 243 229 243 281 295 297 292 281 267 256 257 258 258 262 258 253 259 268 277 283 283 278 267 257 248 235 225 219 215
217 215 204 191 185 173 154 150 159 173 194 210 223 233 238 239 241 244 241 239 242 244 241 237 237 241 249 253 255 257 245 234 228 226 228 229 228 231 233 232 231 231 232 234 240 244 242 242 247 256 264 263 256 253 255 255 235 220 230 247 261 272 274 274 274 265 258 258 262 264 248 237 251 269 286 303 305 292 276 263 254 241 229 221 219
218 222 218 203 199 194 171 135 145 159 171 193 212 223 236 242 242 241 240 242 244 244 243 243 242 239 241 248 250 251 246 238 236 235 236 236 234 233 235 238 240 241 241 241 240 244 249 252 258 265 270 272 269 264 263 257 244 236 240 246 252 260 259 257 263 267 266 265 268 268 250 236 246 266 293 318 325 314 292 273 260 248 235 226 221
222 230 231 216 196 187 185 174 151 157 171 180 196 204 215 231 237 237 235 239 243 243 242 243 240 234 233 234 238 245 247 245 247 249 247 243 236 232 235 241 244 244 248 247 235 235 253 257 263 270 271 274 274 273 272 269 265 259 253 248 246 250 255 251 250 255 260 263 265 264 258 254 258 267 280 299 314 319 311 292 270 253 239 233 229
224 231 229 210 164 142 159 166 150 151 163 167 179 189 180 177 195 214 228 233 236 239 242 240 235 231 230 229 235 251 246 241 244 250 252 247 232 224 229 239 244 245 251 255 245 244 261 260 257 262 267 274 276 275 275 275 275 271 265 259 247 239 240 244 247 250 250 251 255 257 256 256 259 265 276 282 289 300 309 304 280 261 248 243 242
212 219 216 189 148 138 143 146 144 147 148 149 152 145 116 101 84 70 65 211 211 224 235 234 230 228 225 222 226 239 231 220 220 234 258 255 229 221 231 234 240 246 259 271 261 250 261 264 257 257 263 272 276 272 269 271 277 274 267 262 252 244 240 238 243 250 250 247 249 252 251 252 258 264 269 275 280 283 287 290 281 266 257 255 255
210 209 204 175 148 146 142 135 140 144 145 154 153 130 113 109 65 29 30 156 184 193 204 205 208 214 214 210 208 208 210 202 187 196 224 230 208 211 231 233 237 245 257 276 264 245 252 255 253 253 259 275 282 275 268 268 273 269 262 258 251 247 247 243 243 249 255 253 252 255 256 256 260 261 261 265 270 270 272 276 277 273 265 260 258
203 200 187 168 157 156 151 141 137 136 148 182 183 174 218 270 312 338 14 92 160 162 167 173 178 187 192 197 199 199 207 206 197 213 218 206 191 193 207 216 230 238 226 230 262 255 255 249 246 245 245 266 288 291 282 271 269 266 263 261 253 244 241 242 244 245 249 252 254 258 262 263 262 261 263 265 266 265 264 263 264 270 271 268 263
177 192 187 173 165 168 171 173 180 192 214 241 255 276 291 299 309 312 17 111 123 131 146 154 160 170 171 178 191 195 199 200 202 217 219 207 197 192 186 152 112 172 197 162 48 341 308 288 273 261 251 249 255 269 272 269 272 272 267 260 250 243 241 244 246 244 243 246 249 252 259 265 267 267 268 271 274 273 271 269 266 267 268 268 266
140 172 186 187 185 186 190 193 171 145 141 145 137 92 51 41 19 6 144 142 136 132 140 147 152 159 159 167 183 190 196 201 203 208 206 199 199 198 191 164 105 81 71 36 338 322 313 295 281 274 264 241 236 245 249 256 269 270 267 262 255 250 249 249 249 248 247 248 249 250 255 262 266 269 271 274 278 277 274 274 273 270 268 266 264
129 145 169 184 188 171 148 133 119 111 109 108 102 98 96 91 89 94 106 117 120 119 145 175 178 176 168 170 181 190 202 214 220 225 229 227 226 227 223 213 180 104 69 57 46 12 320 287 262 249 259 248 243 245 238 244 261 260 262 266 265 266 263 260 257 255 253 251 252 254 256 259 261 266 270 273 275 274 273 273 272 270 267 263 263
132 133 141 152 149 135 126 123 119 112 109 108 103 99 99 99 102 106 110 112 113 113 116 129 172 203 191 184 193 208 225 243 256 266 276 276 267 264 258 251 246 234 137 86 75 56 25 333 274 225 229 255 271 254 236 248 265 265 270 265 262 266 261 258 257 254 252 250 249 250 251 255 257 261 267 270 271 270 271 271 270 269 265 261 260
129 133 134 135 133 130 126 123 121 115 109 109 106 101 99 100 103 108 113 115 115 119 118 114 117 124 125 133 166 189 210 248 267 279 292 290 283 284 272 263 265 246 193 123 105 92 82 78 109 171 198 224 248 249 237 252 279 102 93 210 231 243 245 255 259 250 246 245 245 247 247 250 253 258 264 267 269 268 268 268 267 267 267 264 262
123 126 130 134 133 131 129 123 117 113 114 116 112 106 100 96 96 102 106 104 105 109 101 99 104 104 95 96 119 132 129 134 164 265 286 299 293 298 309 294 266 193 167 144 139 121 94 93 107 127 150 174 207 220 195 158 117 119 128 145 190 241 253 263 270 266 262 258 257 258 260 260 261 264 267 268 270 270 272 274 272 271 271 270 266
125 123 124 126 127 126 125 121 109 102 106 108 106 101 95 92 91 93 96 97 100 97 88 88 88 83 77 78 98 106 94 90 84 81 66 7 0 344 356 9 85 143 142 142 152 139 114 112 111 111 123 131 139 162 172 174 174 180 200 229 255 268 269 268 268 269 269 271 274 276 275 272 269 270 273 275 275 272 271 272 272 272 274 275 274
131 128 125 123 123 121 117 112 104 94 88 90 94 93 89 88 87 85 89 93 93 90 84 84 84 84 81 76 81 81 70 60 43 51 72 50 25 8 2 4 30 118 129 135 158 176 171 164 151 124 120 122 134 160 183 197 209 224 237 249 262 270 275 277 276 275 275 278 282 284 284 281 277 275 275 276 274 270 267 266 266 267 268 272 275
142 137 132 128 125 123 120 114 106 96 85 80 83 85 83 83 84 86 89 87 83 82 76 75 79 80 78 75 75 74 72 59 30 19 36 54 45 5 347 340 343 345 53 93 143 195 229 240 238 233 213 206 218 220 226 234 240 247 253 257 264 268 272 276 277 279 281 282 284 285 285 283 280 278 276 275 273 271 268 266 265 265 266 268 270
156 147 142 137 132 127 123 117 108 100 92 78 68 70 76 74 70 73 84 85 80 80 75 70 73 73 69 66 65 68 69 63 50 33 11 357 353 2 2 347 346 347 355 10 27 323 311 311 297 276 258 250 253 253 252 255 257 259 262 263 266 268 270 273 275 278 280 283 285 285 283 279 275 273 271 270 269 268 268 267 267 267 268 269 270
182 165 157 149 145 143 140 140 136 124 115 98 63 45 54 52 47 56 82 99 97 97 102 87 74 77 71 51 43 44 42 38 40 36 19 358 350 358 1 357 357 3 10 10 14 16 351 340 344 338 319 303 289 278 273 269 266 266 268 269 269 269 270 270 272 276 279 281 281 277 273 271 271 271 268 266 265 263 263 263 265 267 269 270 272
219 204 186 170 166 174 175 174 172 172 176 173 180 222 286 301 301 306 290 184 170 183 173 168 157 160 192 178 27 8 2 4 9 8 1 354 353 357 355 348 345 347 351 352 353 7 11 353 348 348 342 337 329 314 303 294 285 277 273 273 272 270 269 266 264 267 268 266 264 261 260 264 268 271 272 272 270 268 266 263 263 264 266 269 271
220 221 221 212 203 205 210 216 212 204 204 200 203 220 235 248 249 252 256 251 251 256 234 211 227 257 265 239 211 236 304 309 331 344 341 340 341 342 341 333 330 331 331 331 330 335 349 352 345 340 339 338 335 330 323 315 310 301 289 283 279 274 268 264 261 262 262 263 265 265 265 267 269 271 272 272 273 271 269 268 267 266 264 268 272
212 217 226 231 231 228 229 238 246 250 245 236 236 243 247 247 243 243 249 255 257 259 257 248 247 264 283 283 265 262 299 297 312 331 330 327 323 321 321 317 315 316 316 314 313 316 325 338 342 335 332 332 330 327 322 317 316 312 304 297 290 284 278 272 269 269 270 271 274 275 275 274 273 273 272 273 273 272 271 269 268 266 263 264 268
217 221 226 233 240 246 251 250 250 256 260 263 265 262 261 257 249 246 250 260 263 262 265 268 265 263 268 275 280 290 314 318 324 335 334 324 309 299 296 297 301 305 305 305 308 311 316 324 332 332 327 325 324 323 317 312 310 307 304 303 299 291 284 279 277 276 274 274 275 276 277 276 274 272 271 271 271 271 271 270 268 265 261 259 260
230 233 234 240 247 257 264 262 257 259 264 269 272 271 272 267 258 255 257 261 269 272 276 282 282 277 271 267 266 272 291 308 319 331 333 325 315 304 298 297 299 302 302 303 305 308 310 315 322 325 322 319 317 318 315 311 307 303 299 298 295 291 288 284 279 278 276 275 274 272 271 269 270 270 270 270 270 269 270 270 268 266 261 258 257
235 237 240 247 254 259 262 259 257 258 261 267 270 272 273 270 265 263 260 259 264 267 270 278 285 288 288 286 279 276 284 298 307 315 318 317 315 312 308 305 304 303 301 301 302 305 307 312 316 318 318 316 314 313 313 311 309 306 302 297 291 287 287 285 281 277 274 273 273 271 268 266 266 268 269 270 271 271 271 269 268 266 264 262 261
229 233 241 249 255 258 258 255 254 253 253 259 265 270 271 270 269 267 264 263 264 265 265 267 270 276 283 287 288 288 292 297 301 304 308 312 314 311 307 306 307 307 306 306 306 307 308 310 312 313 314 314 313 311 310 308 305 303 300 298 295 291 286 284 284 281 276 274 272 269 268 267 267 268 270 270 270 270 270 269 268 268 268 267 265
236 240 246 251 256 258 257 256 259 259 256 254 256 262 267 268 268 267 266 266 267 267 265 262 261 262 267 274 279 282 286 287 288 298 307 309 308 306 305 307 308 309 308 307 307 307 307 309 310 310 310 310 309 307 306 305 302 298 297 296 296 295 292 289 288 287 285 282 279 274 271 270 268 268 268 269 268 268 268 268 269 268 266 264 263
245 248 251 255 258 258 257 258 262 264 262 260 258 261 265 268 267 266 265 266 267 266 262 259 260 261 264 271 277 277 278 276 275 285 300 304 301 299 302 306 308 307 306 304 303 303 304 306 306 306 306 307 307 307 306 305 304 301 299 298 296 295 294 292 291 290 289 288 285 282 280 278 276 274 271 268 264 261 261 263 266 264 260 258 257
245 248 252 255 255 258 260 260 261 262 262 262 262 263 263 264 265 266 266 266 267 266 261 255 255 259 264 269 272 271 267 266 267 274 288 297 298 296 300 307 310 308 305 301 298 299 302 305 306 306 306 307 309 310 309 307 305 302 299 298 296 296 295 294 291 289 289 289 287 283 281 281 281 280 278 276 272 269 268 268 266 262 258 256 256
229 235 242 247 250 255 259 262 265 264 262 261 261 260 258 258 261 263 264 265 266 267 265 258 254 256 260 262 264 262 259 258 260 265 277 290 295 294 299 308 312 309 304 298 294 299 306 309 309 310 311 311 311 312 310 307 305 303 302 301 300 299 300 299 297 294 293 293 290 287 284 283 283 282 280 280 280 279 278 276 270 263 259 258 257
218 228 237 246 253 255 257 264 270 271 268 265 262 261 258 258 261 262 264 265 266 268 266 261 257 256 255 255 256 255 254 253 254 258 270 285 292 295 301 308 310 308 302 296 295 302 309 313 312 312 313 314 314 314 314 311 308 307 306 304 304 303 301 300 300 298 298 298 296 292 288 286 288 288 284 283 285 285 284 282 277 270 264 261 259
229 238 246 254 259 262 264 270 278 283 280 271 266 266 265 264 265 267 267 267 267 267 264 261 259 256 251 250 250 248 248 249 252 259 269 281 291 297 302 305 304 301 296 293 297 304 309 311 310 310 312 312 312 312 314 313 311 310 308 306 305 304 301 300 299 298 299 302 302 299 293 288 291 293 290 288 288 288 287 286 283 278 273 268 265
239 245 251 255 259 266 272 276 282 288 286 279 274 272 270 270 269 270 270 269 267 266 263 261 258 253 248 247 245 244 244 248 256 264 270 279 290 296 297 296 294 292 290 291 297 302 304 306 307 308 309 308 308 308 310 310 310 309 308 306 304 303 301 300 299 298 299 300 302 302 298 294 294 294 293 293 291 290 290 288 286 284 278 270 266
246 249 252 256 260 266 273 277 280 282 282 281 281 280 278 277 275 274 274 272 268 265 263 260 252 243 240 239 239 241 247 254 264 269 273 283 292 293 291 289 287 288 290 294 297 299 300 303 304 305 305 305 306 306 307 307 307 306 305 302 301 300 300 298 297 297 297 297 298 298 297 296 297 296 297 298 295 292 292 291 288 284 276 270 267
241 245 250 255 258 261 266 271 272 274 276 280 283 285 284 281 279 277 275 273 271 269 266 258 248 239 234 235 239 246 253 261 264 266 274 284 288 287 287 288 289 290 293 295 295 296 297 299 300 301 302 304 304 304 305 305 304 303 301 297 296 296 294 293 293 294 294 294 294 294 294 296 298 298 299 301 298 293 291 291 286 280 276 276 275
238 242 244 248 252 255 260 266 268 270 274 279 285 288 288 285 282 279 277 278 280 278 266 251 241 235 232 235 242 248 253 255 257 264 274 279 280 281 284 287 289 291 292 291 290 290 292 293 295 297 298 300 300 300 300 300 300 299 297 294 295 294 292 291 292 293 293 291 291 291 292 295 299 300 299 299 298 295 292 289 283 279 277 277 280
258 254 249 245 246 250 256 262 267 270 272 277 284 290 292 292 289 286 284 286 283 270 255 240 230 229 234 239 243 244 247 252 258 265 271 273 276 281 285 286 286 285 284 283 282 283 285 287 290 292 293 294 295 295 296 296 296 295 293 292 294 293 291 290 291 292 292 292 292 294 294 295 299 302 301 300 299 296 293 289 283 278 273 268 272
277 279 275 262 252 249 252 256 263 269 272 275 280 286 291 294 294 291 285 278 266 251 242 234 231 235 240 241 240 243 251 259 264 268 272 275 278 281 282 281 280 279 279 280 281 284 286 288 290 291 292 293 293 293 294 294 293 292 290 291 294 294 292 291 291 292 292 293 295 297 296 296 299 301 303 305 303 300 298 296 288 278 267 264 268